TimeCST,TemperatureF,Dew PointF,Humidity,Sea Level PressureIn,VisibilityMPH,Wind Direction,Wind SpeedMPH,Gust SpeedMPH,PrecipitationIn,Events,Conditions,WindDirDegrees,DateUTC
12:53 AM,10.9,8.1,88,30.18,6.0,ENE,3.5,-,N/A,,Clear,60,2012-12-14 06:53:00
1:53 AM,10.9,7.0,84,30.19,5.0,Calm,Calm,-,N/A,,Clear,0,2012-12-14 07:53:00
2:53 AM,10.0,6.1,84,30.20,6.0,ENE,3.5,-,N/A,,Clear,70,2012-12-14 08:53:00
3:53 AM,14.0,12.0,92,30.17,6.0,East,5.8,-,N/A,,Clear,80,2012-12-14 09:53:00
4:53 AM,14.0,10.0,84,30.17,5.0,East,4.6,-,N/A,,Clear,90,2012-12-14 10:53:00
5:53 AM,12.9,10.0,88,30.15,5.0,East,3.5,-,N/A,,Clear,80,2012-12-14 11:53:00
6:53 AM,12.9,10.0,88,30.14,5.0,East,4.6,-,N/A,,Clear,80,2012-12-14 12:53:00
7:23 AM,14.0,10.4,86,30.04,5.0,East,5.8,-,N/A,,Partly Cloudy,90,2012-12-14 13:23:00
7:53 AM,14.0,10.9,88,30.14,5.0,NE,3.5,-,N/A,,Partly Cloudy,50,2012-12-14 13:53:00
8:36 AM,14.0,10.4,86,30.06,3.0,East,3.5,-,N/A,,Overcast,90,2012-12-14 14:36:00
8:53 AM,14.0,10.9,88,30.15,3.0,ENE,3.5,-,N/A,,Overcast,70,2012-12-14 14:53:00
9:00 AM,14.0,10.4,86,30.06,3.0,ENE,3.5,-,N/A,,Overcast,70,2012-12-14 15:00:00
9:11 AM,15.8,12.2,86,30.06,2.5,ENE,3.5,-,N/A,,Overcast,70,2012-12-14 15:11:00
9:53 AM,16.0,12.9,88,30.15,2.5,East,5.8,-,N/A,,Scattered Clouds,80,2012-12-14 15:53:00
10:24 AM,17.6,14.0,86,30.04,3.0,ENE,6.9,-,N/A,,Clear,70,2012-12-14 16:24:00
10:53 AM,19.0,15.1,85,30.12,3.0,East,9.2,-,N/A,,Clear,90,2012-12-14 16:53:00
11:53 AM,21.0,18.0,88,30.08,4.0,East,5.8,-,N/A,,Clear,80,2012-12-14 17:53:00
12:53 PM,26.1,19.9,78,30.06,6.0,ENE,5.8,-,N/A,,Haze,60,2012-12-14 18:53:00
1:53 PM,26.1,19.9,78,30.03,6.0,ENE,6.9,-,N/A,,Haze,60,2012-12-14 19:53:00
2:53 PM,27.0,19.9,75,30.00,7.0,East,9.2,-,N/A,,Clear,80,2012-12-14 20:53:00
3:53 PM,27.0,19.9,75,29.99,7.0,East,6.9,-,N/A,,Clear,80,2012-12-14 21:53:00
4:53 PM,28.0,21.0,75,29.96,8.0,East,6.9,-,N/A,,Clear,80,2012-12-14 22:53:00
5:53 PM,28.0,21.0,75,29.95,8.0,East,6.9,-,N/A,,Clear,90,2012-12-14 23:53:00
6:53 PM,28.0,21.0,75,29.94,8.0,East,5.8,-,N/A,,Clear,80,2012-12-15 00:53:00
7:53 PM,28.0,21.0,75,29.91,8.0,East,8.1,-,N/A,,Clear,90,2012-12-15 01:53:00
8:53 PM,28.0,21.0,75,29.91,8.0,East,6.9,-,N/A,,Clear,90,2012-12-15 02:53:00
9:53 PM,28.9,21.9,75,29.88,8.0,East,8.1,-,N/A,,Clear,90,2012-12-15 03:53:00
10:53 PM,30.9,24.1,76,29.86,8.0,East,8.1,-,N/A,,Overcast,100,2012-12-15 04:53:00
11:53 PM,33.1,26.1,75,29.83,8.0,East,8.1,-,N/A,,Overcast,90,2012-12-15 05:53:00